Mansfield, OH

2:20 PM EDT on June 25, 2017 (GMT -0400)
Mansfield Lahm Regional

Weather History for KMFD - November, 2013

Change the Weather History Date:

Monday, November 25, 2013

  Actual Average Record
Temperature  
Mean Temperature 25 °F 37 °F  
Max Temperature 34 °F 45 °F 65 °F (2006)
Min Temperature 16 °F 30 °F 5 °F (1950)
Degree Days  
Heating Degree Days 40 28  
Month to date heating degree days 629 568  
Since 1 July heating degree days 1145 1136  
Cooling Degree Days 0 0  
Month to date cooling degree days 0 0  
Year to date cooling degree days 741 632  
Moisture  
Dew Point 14 °F    
Average Humidity 66    
Maximum Humidity 88    
Minimum Humidity 43    
Precipitation  
Precipitation T in 0.13 in 2.36 in (2010)
Month to date precipitation 2.16 3.20  
Year to date precipitation 38.75 40.29  
Snow  
Snow T in 0.10 in - ()
Month to date snowfall 0.7 1.5  
Since 1 July snowfall 0.7 2.0  
Since 1 September snowfall 0.7 2.0  
Snow Depth T in    
Sea Level Pressure  
Sea Level Pressure 30.32 in    
Wind  
Wind Speed 13 mph (SSW)    
Max Wind Speed 23 mph    
Max Gust Speed 29 mph    
Visibility 10 miles    
Events      
T = Trace of Precipitation, MM = Missing Value Source: NWS Daily Summary

Daily Weather History Graph

Daily Weather History Graph

Search for Another Location

Airport or City:

Trip Planner

Search our weather history database for the weather conditions in past years. The results will help you decide how hot, cold, wet, or windy it might be!

Date:

Astronomy

Nov. 25, 2013 Rise Set
Actual Time 7:28 AM EST 5:05 PM EST
Civil Twilight 6:58 AM EST 5:35 PM EST
Nautical Twilight 6:25 AM EST 6:09 PM EST
Astronomical Twilight 5:52 AM EST 6:41 PM EST
Moon No Moon Rise 12:43 PM EST
Length of Visible Light 10h 36m
Length of Day
9h 36m
Waning Gibbous, 51% of the Moon is Illuminated
Nov 25
Waning Gibbous
Nov 25
Last Quarter
Dec 2
New
Dec 9
First Quarter
Dec 17
Full

Hourly Weather History & Observations

Time (EST) Temp. Windchill Dew Point Humidity Pressure Visibility Wind Dir Wind Speed Gust Speed Precip Events Conditions
12:52 AM 16.0 °F 6.3 °F 12.0 °F 84% 30.50 in 10.0 mi SSW 6.9 mph - N/A   Clear
1:52 AM 17.1 °F 5.8 °F 12.0 °F 81% 30.50 in 10.0 mi SSW 9.2 mph - N/A   Clear
2:52 AM 18.0 °F 7.7 °F 12.0 °F 78% 30.49 in 10.0 mi SSW 8.1 mph - N/A   Clear
3:52 AM 18.0 °F 6.1 °F 12.0 °F 78% 30.45 in 10.0 mi South 10.4 mph - N/A   Clear
4:52 AM 17.1 °F 5.0 °F 12.0 °F 81% 30.45 in 10.0 mi South 10.4 mph - N/A   Clear
5:52 AM 17.1 °F 5.0 °F 12.0 °F 81% 30.44 in 10.0 mi SSW 10.4 mph - N/A   Clear
6:52 AM 18.0 °F 4.8 °F 10.9 °F 74% 30.43 in 10.0 mi South 12.7 mph - N/A   Clear
7:52 AM 19.0 °F 5.0 °F 10.9 °F 71% 30.41 in 10.0 mi South 15.0 mph - N/A   Clear
8:52 AM 21.0 °F 9.3 °F 12.0 °F 68% 30.40 in 10.0 mi South 11.5 mph - N/A   Clear
9:52 AM 23.0 °F 9.6 °F 12.0 °F 63% 30.37 in 10.0 mi South 16.1 mph - N/A   Clear
10:52 AM 25.0 °F 12.6 °F 12.9 °F 60% 30.34 in 10.0 mi South 15.0 mph - N/A   Clear
11:52 AM 28.0 °F 17.0 °F 12.9 °F 53% 30.30 in 10.0 mi South 13.8 mph - N/A   Partly Cloudy
12:52 PM 30.0 °F 19.5 °F 12.9 °F 49% 30.27 in 10.0 mi South 13.8 mph - N/A   Scattered Clouds
1:52 PM 30.9 °F 20.7 °F 12.0 °F 46% 30.24 in 10.0 mi South 13.8 mph - N/A   Overcast
2:52 PM 30.9 °F 19.4 °F 10.0 °F 42% 30.23 in 10.0 mi SSW 17.3 mph 23.0 mph N/A   Overcast
3:52 PM 30.9 °F 20.7 °F 10.9 °F 43% 30.24 in 10.0 mi SSW 13.8 mph - N/A   Overcast
4:52 PM 30.9 °F 22.2 °F 12.9 °F 47% 30.23 in 10.0 mi South 10.4 mph - N/A   Overcast
5:52 PM 30.9 °F 20.7 °F 14.0 °F 50% 30.23 in 10.0 mi South 13.8 mph - N/A   Overcast
6:52 PM 32.0 °F 21.6 °F 15.1 °F 50% 30.22 in 10.0 mi SSW 15.0 mph - N/A   Overcast
7:52 PM 33.1 °F 23.9 °F 14.0 °F 46% 30.19 in 10.0 mi SSW 12.7 mph - N/A   Overcast
8:52 PM 33.1 °F 23.4 °F 15.1 °F 48% 30.20 in 10.0 mi SSW 13.8 mph - N/A   Overcast
9:52 PM 33.1 °F 22.6 °F 17.1 °F 52% 30.19 in 10.0 mi SSW 16.1 mph 21.9 mph N/A   Overcast
10:52 PM 30.9 °F 19.8 °F 27.0 °F 85% 30.21 in 10.0 mi SSW 16.1 mph 21.9 mph N/A   Overcast
11:52 PM 30.9 °F 20.2 °F 25.0 °F 79% 30.20 in 10.0 mi SSW 15.0 mph 21.9 mph 0.00 in   Overcast